Location: ??
(34.7252°N, 135.5457°E)
Time: 08:42:27
(UTC+00:00)

Cosmos 1242 Rocket - Pass Details

Date: 24 September 2020
Orbit: 447 x 487 km, 81.2° (Epoch: 28 October)

Event Time Altitude Azimuth Distance (km) Brightness Sun altitude
Rises 20:09:12 0° 176° (S) 2,540 6.2 -8.8°
Reaches altitude 10° 20:11:19 10° 171° (S) 1,666 5.3 -8.4°
Maximum altitude 20:14:52 51° 95° (E) 622 3.6 -7.6°
Drops below altitude 10° 20:18:26 10° 19° (NNE) 1,676 5.6 -6.9°
Sets 20:20:35 0° 15° (NNE) 2,557 6.5 -6.5°
